DW2380 Paimio FI current weather conditions

sailwx.info

Wind from 360

Air temperature -5.0° C
Dewpoint -6.0° C

Last reported at 2017-Jan-23 23:43 UTC.
Time now 2017-Jan-24 00:55 UTC

Location: N 60°28' E 022°40'.
View on Google Maps.

See reports from other nearby stations

  
Tides and Currents Weather Stations Pressure Air Temp Water Temp Dewpoint Dewpoint Depression Visibility Wind Speed Wind Dir Waves Ship Positions
date/time (UTC)wind fromknots sea level pressurealtimeterstation pressurevisibilityair tempwater tempwave heightnotes
2017-Jan-23 23:43 360 -5.0
2017-Jan-23 23:28 360 -5.0
2017-Jan-23 23:13 360 0 gusting 3 -5.0
2017-Jan-23 22:58 360 -4.4
2017-Jan-23 22:42 360 -4.4
2017-Jan-23 22:27 360 0 gusting 3 -3.9
2017-Jan-23 22:12 360 -3.3
2017-Jan-23 21:57 360 -3.3
2017-Jan-23 21:43 360 -2.8
2017-Jan-23 21:26 360 -2.8
2017-Jan-23 21:11 360 -2.2
2017-Jan-23 20:56 360 -2.2
2017-Jan-23 20:41 360 -1.7
2017-Jan-23 20:26 360 -1.7
2017-Jan-23 20:11 360 -1.7
2017-Jan-23 19:56 360 1 gusting 3 -1.7
2017-Jan-23 19:41 360 2 gusting 4 -1.7
2017-Jan-23 19:26 360 2 gusting 4 -2.2
2017-Jan-23 19:11 360 1 gusting 3 -2.2
2017-Jan-23 18:56 360 1 gusting 2 -2.8
2017-Jan-23 18:41 360 -2.2
2017-Jan-23 18:25 360 -2.2
2017-Jan-23 18:09 360 -2.2
2017-Jan-23 17:54 360 2 gusting 4 -1.7
2017-Jan-23 17:39 360 2 gusting 4 -1.7
2017-Jan-23 17:24 360 2 gusting 6 -1.7
2017-Jan-23 17:09 360 2 gusting 6 -2.2
2017-Jan-23 16:54 360 2 gusting 5 -2.8
2017-Jan-23 16:39 360 0 gusting 2 -2.8
2017-Jan-23 16:23 360 0 gusting 3 -2.2
2017-Jan-23 16:08 360 1 gusting 3 -2.2
2017-Jan-23 15:53 360 0 gusting 3 -1.7
2017-Jan-23 15:38 360 -1.7
2017-Jan-23 15:24 360 2 gusting 4 -1.1
2017-Jan-23 15:08 360 1 gusting 4 -1.1
2017-Jan-23 14:52 360 1 gusting 4 -0.6
2017-Jan-23 14:37 360 2 gusting 5 -0.0
2017-Jan-23 14:22 360 4 gusting 6 -0.0
2017-Jan-23 14:07 360 5 gusting 8 0.6
2017-Jan-23 13:52 360 6 gusting 11 0.6
2017-Jan-23 13:37 360 7 gusting 12 0.6
2017-Jan-23 13:22 360 7 gusting 12 0.6
2017-Jan-23 13:06 360 8 gusting 15 0.6
2017-Jan-23 12:51 360 5 gusting 11 0.6
2017-Jan-23 12:36 360 6 gusting 8 0.6
2017-Jan-23 12:21 360 6 gusting 8 0.6
2017-Jan-23 12:06 360 4 gusting 7 0.6
2017-Jan-23 11:51 360 6 gusting 12 0.6
2017-Jan-23 11:36 360 4 gusting 10 0.6
2017-Jan-23 11:21 360 6 gusting 13 0.6
2017-Jan-23 11:06 360 8 gusting 13 0.6
2017-Jan-23 10:51 360 3 gusting 7 0.6
2017-Jan-23 10:37 360 5 gusting 7 0.6
2017-Jan-23 10:21 360 5 gusting 13 0.6
2017-Jan-23 10:06 360 7 gusting 11 0.6
2017-Jan-23 09:49 360 5 gusting 10 0.6
2017-Jan-23 09:34 360 5 gusting 11 -0.0
2017-Jan-23 09:19 360 6 gusting 7 -0.0
2017-Jan-23 09:04 360 3 gusting 8 -0.0
2017-Jan-23 08:49 360 6 gusting 8 -0.0
2017-Jan-23 08:34 360 5 gusting 8 -0.0
2017-Jan-23 08:18 360 3 gusting 10 -0.0
2017-Jan-23 08:03 360 5 gusting 9 -0.0
2017-Jan-23 07:48 360 5 gusting 7 -0.6
2017-Jan-23 07:33 360 4 gusting 6 -0.6
2017-Jan-23 07:18 360 2 gusting 5 -0.6
2017-Jan-23 07:03 360 2 gusting 6 -0.6
2017-Jan-23 06:48 360 2 gusting 5 -1.1
2017-Jan-23 06:32 360 1 gusting 2 -1.1
2017-Jan-23 06:17 360 2 gusting 5 -1.1
2017-Jan-23 06:02 360 1 gusting 3 -1.1
2017-Jan-23 05:47 360 -1.1
2017-Jan-23 05:32 360 -1.7
2017-Jan-23 05:16 360 0 gusting 4 -1.7
2017-Jan-23 05:01 360 1 gusting 3 -1.7
2017-Jan-23 04:46 360 0 gusting 3 -1.7
2017-Jan-23 04:31 360 2 gusting 4 -1.7
2017-Jan-23 04:16 360 1 gusting 3 -1.1
2017-Jan-23 04:01 360 1 gusting 6 -1.1
2017-Jan-23 03:46 360 5 gusting 10 -1.1
2017-Jan-23 03:31 360 6 gusting 11 -1.1
2017-Jan-23 03:16 360 7 gusting 11 -1.1
2017-Jan-23 03:01 360 4 gusting 8 -1.1
2017-Jan-23 02:46 360 5 gusting 9 -1.1
2017-Jan-23 02:31 360 8 gusting 12 -1.1
2017-Jan-23 02:16 360 5 gusting 8 -1.1
2017-Jan-23 01:59 360 3 gusting 7 -1.1
2017-Jan-23 01:44 360 6 gusting 10 -1.1
2017-Jan-23 01:29 360 4 gusting 8 -1.1
2017-Jan-23 01:14 360 6 gusting 9 -1.1
2017-Jan-23 00:59 360 6 gusting 9 -1.1
2017-Jan-23 00:44 360 6 gusting 10 -1.1
2017-Jan-23 00:28 360 5 gusting 10 -1.1
2017-Jan-23 00:13 360 2 gusting 6 -1.1
2017-Jan-22 23:58 360 5 gusting 12 -1.1
2017-Jan-22 23:43 360 6 gusting 10 -1.1
2017-Jan-22 23:28 360 3 gusting 7 -0.6
2017-Jan-22 23:13 360 6 gusting 9 -0.6
2017-Jan-22 22:57 360 2 gusting 6 -0.6
2017-Jan-22 22:42 360 5 gusting 7 -0.6
2017-Jan-22 22:27 360 3 gusting 7 -0.6
2017-Jan-22 22:12 360 4 gusting 7 -0.6
2017-Jan-22 21:57 360 5 gusting 6 -0.6
2017-Jan-22 21:42 360 3 gusting 6 -0.6
2017-Jan-22 21:26 360 1 gusting 6 -0.6
2017-Jan-22 21:12 360 3 gusting 6 -0.6
2017-Jan-22 20:56 360 2 gusting 5 -0.6
2017-Jan-22 20:41 360 1 gusting 4 -0.6
2017-Jan-22 20:27 360 1 gusting 3 -0.6
2017-Jan-22 20:11 360 1 gusting 7 -0.6
2017-Jan-22 19:56 360 1 gusting 5 -0.6
2017-Jan-22 19:42 360 3 gusting 5 -0.6
2017-Jan-22 19:26 360 1 gusting 3 -0.6
2017-Jan-22 19:11 360 4 gusting 6 -0.6
2017-Jan-22 18:56 360 2 gusting 5 -1.1
2017-Jan-22 18:41 360 3 gusting 6 -1.7
2017-Jan-22 18:26 360 2 gusting 5 -2.2
2017-Jan-22 18:09 360 1 gusting 3 -2.8
2017-Jan-22 17:54 360 0 gusting 2 -2.8
2017-Jan-22 17:39 360 -2.8
2017-Jan-22 17:24 360 -2.8
2017-Jan-22 17:09 360 -2.8
2017-Jan-22 16:54 360 -2.8
2017-Jan-22 16:38 360 -2.8
2017-Jan-22 16:23 360 -2.8
2017-Jan-22 16:08 360 -2.2
2017-Jan-22 15:53 360 -2.2
2017-Jan-22 15:38 360 -1.7
2017-Jan-22 15:23 360 -1.7
2017-Jan-22 15:08 360 -1.1
2017-Jan-22 14:52 360 -1.1
2017-Jan-22 14:37 360 -0.6
2017-Jan-22 14:22 360 1 gusting 3 -0.0
2017-Jan-22 14:07 360 1 gusting 2 -0.0
2017-Jan-22 13:52 360 0.6
2017-Jan-22 13:37 360 1.1
2017-Jan-22 13:22 360 1.1
2017-Jan-22 13:06 360 2 gusting 5 1.7
2017-Jan-22 12:51 360 2 gusting 4 1.7
2017-Jan-22 12:36 360 0 gusting 2 1.7
2017-Jan-22 12:21 360 2.2
2017-Jan-22 12:06 360 2 gusting 6 2.2
2017-Jan-22 11:51 360 3 gusting 6 1.7
2017-Jan-22 11:36 360 4 gusting 6 1.7
2017-Jan-22 11:21 360 2 gusting 5 1.7
2017-Jan-22 11:06 360 2 gusting 4 1.1
2017-Jan-22 10:52 360 0 gusting 4 0.6
2017-Jan-22 10:36 360 1 gusting 3 -0.0
2017-Jan-22 10:19 360 0 gusting 3 -0.6
2017-Jan-22 10:04 360 0 gusting 4 -1.1
2017-Jan-22 09:49 360 -1.7
2017-Jan-22 09:34 360 -1.7
2017-Jan-22 09:19 360 -2.2
2017-Jan-22 09:04 360 -2.2
2017-Jan-22 08:49 360 -2.8
2017-Jan-22 08:34 360 -3.3
2017-Jan-22 08:18 360 -3.3
2017-Jan-22 08:03 360 -3.3
2017-Jan-22 07:48 360 -3.9
2017-Jan-22 07:33 360 -3.3
2017-Jan-22 07:18 360 -3.3
2017-Jan-22 07:02 360 0 gusting 2 -3.3
2017-Jan-22 06:47 360 -3.3
2017-Jan-22 06:32 360 -2.8
2017-Jan-22 06:17 360 -2.8
2017-Jan-22 06:02 360 -2.2
2017-Jan-22 05:47 360 -1.7
2017-Jan-22 05:32 360 0 gusting 2 -1.7
2017-Jan-22 05:01 360 2 gusting 5 -1.1
2017-Jan-22 04:46 360 1 gusting 5 -1.7
2017-Jan-22 04:31 360 3 gusting 5 -2.2
2017-Jan-22 04:16 360 3 gusting 6 -2.8
2017-Jan-22 04:01 360 2 gusting 4 -3.3
2017-Jan-22 03:46 360 4 gusting 7 -3.9
2017-Jan-22 03:31 360 0 gusting 3 -3.9
2017-Jan-22 03:16 360 -3.9
2017-Jan-22 03:01 360 -3.9
2017-Jan-22 02:46 360 -3.9
2017-Jan-22 02:29 360 -3.3
2017-Jan-22 02:14 360 -3.3
2017-Jan-22 01:59 360 0 gusting 2 -3.3
2017-Jan-22 01:44 360 -2.8
2017-Jan-22 01:29 360 -2.8
2017-Jan-22 01:14 360 -2.8
2017-Jan-22 00:59 360 -2.8
2017-Jan-22 00:43 360 -2.2
2017-Jan-22 00:28 360 2 gusting 4 -2.2
2017-Jan-22 00:13 360 -2.2